Weather History for Racine, WI

Change the Weather History Date:

Wednesday, August 28, 2013

  Actual Average Record
Temperature  
Mean Temperature 72 °F -  
Max Temperature 75 °F 78 °F 96 °F (1976)
Min Temperature 68 °F 61 °F 43 °F (1965)
Cooling Degree Days 6    
Growing Degree Days 22 (Base 50)    
Moisture  
Dew Point 69 °F    
Average Humidity 91    
Maximum Humidity 100    
Minimum Humidity 82    
Precipitation  
Precipitation 0.00 in - - ()
Sea Level Pressure  
Sea Level Pressure 29.98 in    
Wind  
Wind Speed 10 mph (North)    
Max Wind Speed 15 mph    
Max Gust Speed 21 mph    
Visibility 6 miles    
Events Fog    
Averages and records for this station are not official NWS values.
T = Trace of Precipitation, MM = Missing Value Source: NWS Daily Summary

Daily Weather History Graph

Daily Weather History Graph

Search for Another Location

Airport:

Trip Planner

Search our weather history database for the weather conditions in past years. The results will help you decide how hot, cold, wet, or windy it might be!

Date:

Astronomy

Aug. 28, 2013 Rise Set
Actual Time 6:11 AM CDT 7:32 PM CDT
Civil Twilight 5:42 AM CDT 8:01 PM CDT
Nautical Twilight 5:07 AM CDT 8:36 PM CDT
Astronomical Twilight 4:29 AM CDT 9:13 PM CDT
Moon No Moon Rise 2:13 PM CDT (8/28)
Length of Visible Light 14h 18m
Length of Day
13h 20m
Waning Gibbous, 47% of the Moon is Illuminated
Aug 28
Waning Gibbous
Sep 5
New
Sep 12
First Quarter
Sep 19
Full
Sep 26
Last Quarter

Hourly Weather History & Observations

Time (CDT) Temp. Dew Point Humidity Pressure Visibility Wind Dir Wind Speed Gust Speed Precip Events Conditions
12:53 AM 75.0 °F 71.1 °F 87% 29.85 in 9.0 mi North 8.1 mph - N/A   Mostly Cloudy
1:42 AM 73.4 °F 71.6 °F 94% 29.87 in 6.0 mi North 12.7 mph - N/A   Mostly Cloudy
1:50 AM 73.4 °F 71.6 °F 94% 29.87 in 5.0 mi NNE 11.5 mph - N/A   Mostly Cloudy
1:53 AM 73.0 °F 71.1 °F 93% 29.86 in 4.0 mi North 11.5 mph - N/A   Mostly Cloudy
2:09 AM 71.6 °F 69.8 °F 94% 29.88 in 2.0 mi North 12.7 mph - N/A   Overcast
2:28 AM 71.6 °F 69.8 °F 94% 29.88 in 4.0 mi North 9.2 mph - N/A   Overcast
2:53 AM 71.1 °F 69.1 °F 93% 29.86 in 5.0 mi North 12.7 mph - N/A   Overcast
3:53 AM 71.1 °F 69.1 °F 93% 29.88 in 5.0 mi North 12.7 mph - N/A   Overcast
4:35 AM 71.6 °F 69.8 °F 94% 29.91 in 10.0 mi North 11.5 mph - N/A   Overcast
4:45 AM 71.6 °F 69.8 °F 94% 29.91 in 9.0 mi North 10.4 mph - N/A   Overcast
4:53 AM 71.1 °F 69.1 °F 93% 29.90 in 9.0 mi North 10.4 mph - N/A   Overcast
5:29 AM 71.6 °F 69.8 °F 94% 29.92 in 1.5 mi North 13.8 mph - N/A   Overcast
5:32 AM 71.6 °F 69.8 °F 94% 29.93 in 0.8 mi North 11.5 mph - N/A   Overcast
5:53 AM 70.0 °F 69.1 °F 97% 29.92 in 0.8 mi North 12.7 mph - N/A   Mist
6:00 AM 69.8 °F 69.8 °F 100% 29.93 in 2.0 mi North 12.7 mph - N/A   Overcast
6:08 AM 69.8 °F 69.8 °F 100% 29.93 in 8.0 mi North 12.7 mph - N/A   Overcast
6:53 AM 70.0 °F 68.0 °F 93% 29.94 in 6.0 mi North 11.5 mph - N/A   Overcast
7:19 AM 69.8 °F 68.0 °F 94% 29.96 in 1.8 mi North 15.0 mph - N/A   Overcast
7:35 AM 69.8 °F 68.0 °F 94% 29.97 in 0.5 mi North 13.8 mph 20.7 mph N/A Fog Fog
7:53 AM 70.0 °F 68.0 °F 93% 29.96 in 1.0 mi North 12.7 mph - N/A   Overcast
8:15 AM 69.8 °F 68.0 °F 94% 29.97 in 3.0 mi North 15.0 mph - N/A   Overcast
8:40 AM 71.6 °F 68.0 °F 88% 29.98 in 9.0 mi North 11.5 mph - N/A   Overcast
8:53 AM 71.1 °F 68.0 °F 90% 29.96 in 10.0 mi North 11.5 mph - N/A   Overcast
9:14 AM 71.6 °F 68.0 °F 88% 29.98 in 10.0 mi North 10.4 mph - N/A   Overcast
9:53 AM 72.0 °F 68.0 °F 87% 29.98 in 5.0 mi North 10.4 mph - N/A   Overcast
10:53 AM 72.0 °F 68.0 °F 87% 29.99 in 10.0 mi North 12.7 mph - N/A   Overcast
11:22 AM 73.4 °F 69.8 °F 88% 30.01 in 10.0 mi North 10.4 mph - N/A   Overcast
11:53 AM 72.0 °F 68.0 °F 87% 30.01 in 10.0 mi North 10.4 mph - N/A   Overcast
12:01 PM 73.4 °F 69.8 °F 88% 30.02 in 9.0 mi North 10.4 mph - N/A   Overcast
12:53 PM 75.0 °F 69.1 °F 82% 30.01 in 10.0 mi NNE 11.5 mph - N/A   Overcast
1:53 PM 73.9 °F 69.1 °F 85% 30.02 in 10.0 mi North 11.5 mph - N/A   Overcast
2:53 PM 73.0 °F 69.1 °F 87% 30.02 in 10.0 mi North 10.4 mph - N/A   Overcast
3:53 PM 73.9 °F 69.1 °F 85% 30.02 in 10.0 mi North 11.5 mph - N/A   Overcast
4:53 PM 73.0 °F 69.1 °F 87% 30.03 in 10.0 mi NNE 9.2 mph - N/A   Overcast
5:53 PM 73.0 °F 69.1 °F 87% 30.03 in 10.0 mi NNE 8.1 mph - N/A   Scattered Clouds
6:53 PM 71.1 °F 68.0 °F 90% 30.03 in 8.0 mi North 6.9 mph - N/A   Mostly Cloudy
7:08 PM 69.8 °F 68.0 °F 94% 30.04 in 4.0 mi NNE 6.9 mph - N/A   Mostly Cloudy
7:15 PM 69.8 °F 68.0 °F 94% 30.04 in 1.8 mi NNE 6.9 mph - N/A   Overcast
7:30 PM 69.8 °F 68.0 °F 94% 30.05 in 2.5 mi North 5.8 mph - N/A   Overcast
7:39 PM 69.8 °F 68.0 °F 94% 30.05 in 3.0 mi NNE 6.9 mph - N/A   Overcast
7:53 PM 69.1 °F 68.0 °F 96% 30.04 in 3.0 mi NNE 5.8 mph - N/A   Overcast
8:15 PM 69.8 °F 66.2 °F 88% 30.06 in 2.0 mi North 4.6 mph - N/A   Overcast
8:30 PM 69.8 °F 66.2 °F 88% 30.06 in 6.0 mi NNE 4.6 mph - N/A   Mostly Cloudy
8:37 PM 69.8 °F 66.2 °F 88% 30.06 in 7.0 mi Calm Calm - N/A   Scattered Clouds
8:53 PM 69.1 °F 66.9 °F 93% 30.05 in 8.0 mi NNE 3.5 mph - N/A   Clear
9:53 PM 69.1 °F 66.9 °F 93% 30.06 in 10.0 mi NNW 3.5 mph - N/A   Clear
10:53 PM 68.0 °F 66.0 °F 93% 30.06 in 10.0 mi Calm Calm - N/A   Clear
11:53 PM 68.0 °F 64.9 °F 90% 30.06 in 10.0 mi Calm Calm - N/A   Clear